This is the latest recevied weather packets stored in our database for station/object N4DBJ. If no packets are shown the sender has not sent any weather packets the latest 10 day(s).
| Time | Temp. | Humidity | Pressure | Rain* | Wind** | Luminosity | Snow |
|---|---|---|---|---|---|---|---|
| 1777879413 | 10.56° C | 78% | 1011.3 hPa | 0 mm | - | 0 W/m² | - |
| 1777879111 | 10.56° C | 79% | 1011.3 hPa | 0 mm | - | 0 W/m² | - |
| 1777878807 | 10.56° C | 80% | 1011.5 hPa | 0 mm | - | 0 W/m² | - |
| 1777878505 | 10.56° C | 80% | 1011.4 hPa | 0 mm | - | 0 W/m² | - |
| 1777878201 | 10° C | 80% | 1011.5 hPa | 0 mm | - | 0 W/m² | - |
| 1777877897 | 10° C | 81% | 1011.5 hPa | 0 mm | - | 0 W/m² | - |
| 1777877595 | 10° C | 81% | 1011.5 hPa | 0 mm | - | 0 W/m² | - |
| 1777877291 | 9.44° C | 83% | 1011.5 hPa | 0 mm | - | 0 W/m² | - |
| 1777876989 | 8.89° C | 87% | 1011.6 hPa | 0 mm | - | 0 W/m² | - |
| 1777876686 | 8.89° C | 88% | 1011.6 hPa | 0 mm | - | 0 W/m² | - |
| 1777876384 | 8.89° C | 88% | 1011.7 hPa | 0 mm | - | 0 W/m² | - |
| 1777876079 | 8.89° C | 88% | 1011.7 hPa | 0 mm | - | 0 W/m² | - |
| 1777875775 | 8.89° C | 87% | 1011.7 hPa | 0 mm | - | 0 W/m² | - |
| 1777875472 | 8.89° C | 87% | 1011.8 hPa | 0 mm | - | 0 W/m² | - |
| 1777875169 | 8.33° C | 90% | 1011.6 hPa | 0 mm | - | 0 W/m² | - |
| 1777874866 | 7.78° C | 92% | 1011.8 hPa | 0 mm | - | 0 W/m² | - |
| 1777874561 | 7.78° C | 92% | 1012 hPa | 0 mm | - | 0 W/m² | - |
| 1777874260 | 7.22° C | 92% | 1012 hPa | 0 mm | - | 0 W/m² | - |
| 1777873956 | 7.22° C | 92% | 1012 hPa | 0 mm | - | 0 W/m² | - |
| 1777873653 | 7.22° C | 91% | 1012.4 hPa | 0 mm | - | 0 W/m² | - |
| 1777873351 | 7.22° C | 91% | 1012.4 hPa | 0 mm | - | 0 W/m² | - |
| 1777873048 | 7.22° C | 91% | 1012.4 hPa | 0 mm | - | 0 W/m² | - |
| 1777872744 | 7.22° C | 90% | 1012.4 hPa | 0 mm | - | 0 W/m² | - |
| 1777872441 | 7.22° C | 89% | 1012.4 hPa | 0 mm | - | 0 W/m² | - |
| 1777872140 | 7.22° C | 89% | 1012.4 hPa | 0 mm | - | 0 W/m² | - |
* Rain latest hour (hover to see other rain measurements)
** Current wind speed in m/s (hover to see current wind gust speed)